Overview Statistics Trail Chart Weather Telemetry Raw packets
 

This is the latest recevied weather packets stored in our database for station/object KV9E. If no packets are shown the sender has not sent any weather packets the latest 10 day(s).

<< 107 108 109 110 111 112 113 >>
Time Temp. Humidity Pressure Rain* Wind** Luminosity Snow
1787792126 22.78° C 84% 1015.1 hPa 0 mm - 0 W/m² -
1787791824 22.78° C 84% 1015.3 hPa 0 mm - 0 W/m² -
1787791519 22.78° C 83% 1015.1 hPa 0 mm - 0 W/m² -
1787791214 22.78° C 83% 1015.4 hPa 0 mm - 0 W/m² -
1787790909 22.78° C 84% 1015.2 hPa 0 mm - 0 W/m² -
1787790604 22.78° C 84% 1015.2 hPa 0 mm - 0 W/m² -
1787790299 23.33° C 82% 1015.4 hPa 0 mm - 1 W/m² -
1787789995 23.33° C 82% 1015.1 hPa 0 mm - 1 W/m² -
1787789689 23.33° C 83% 1015.3 hPa 0 mm - 2 W/m² -
1787789384 23.33° C 83% 1015.3 hPa 0 mm - 3 W/m² -
1787789084 23.33° C 82% 1015.2 hPa 0 mm - 7 W/m² -
1787788782 23.33° C 82% 1015.2 hPa 0 mm - 11 W/m² -
1787788476 23.33° C 83% 1015.1 hPa 0 mm - 17 W/m² -
1787788171 23.33° C 84% 1015.1 hPa 0 mm - 15 W/m² -
1787787866 23.33° C 83% 1015.2 hPa 0 mm - 15 W/m² -
1787787566 23.33° C 83% 1015.1 hPa 0 mm - 21 W/m² -
1787787264 23.89° C 83% 1015.2 hPa 0 mm - 35 W/m² -
1787786960 23.89° C 82% 1015.3 hPa 0 mm - 34 W/m² -
1787786655 23.89° C 82% 1015.5 hPa 0 mm - 40 W/m² -
1787786354 23.89° C 83% 1015.5 hPa 0 mm - 48 W/m² -
1787786051 23.89° C 82% 1015.4 hPa 0 mm - 54 W/m² -
1787785746 23.89° C 84% 1015.2 hPa 0 mm - 50 W/m² -
1787785441 23.89° C 84% 1015.5 hPa 0 mm - 58 W/m² -
1787785140 24.44° C 82% 1015.4 hPa 0 mm - 61 W/m² -
1787784835 24.44° C 81% 1015.4 hPa 0 mm - 66 W/m² -

* Rain latest hour (hover to see other rain measurements)
** Current wind speed in m/s (hover to see current wind gust speed)